Location: Eyeline Observatory
(43.2182°N, 78.8632°W)
Time: 20:27:24
(UTC-04:00)

Vanguard 2 Rocket - Visible Passes

Search period start: 16 July 2018 00:00
Search period end: 26 July 2018 00:00
Orbit: 553 x 3327 km, 32.9° (Epoch: 16 July)

Date Brightness Start Highest point End Pass type
(mag) Time Alt. Az. Time Alt. Az. Time Alt. Az.
16 Jul 8.7 03:40:57 18° S 03:44:15 23° SE 03:52:11 10° E visible
17 Jul 9.1 02:44:48 13° SE 02:45:21 13° SE 02:49:04 10° ESE visible
17 Jul 8.7 04:50:35 12° SW 04:57:12 40° SSE 05:08:53 10° E visible
18 Jul 8.4 03:54:26 21° SSW 03:57:48 30° SSE 04:06:41 10° E visible
19 Jul 8.6 02:58:17 19° SSE 02:58:47 19° SE 03:04:31 10° ESE visible
19 Jul 8.5 05:04:11 10° WSW 05:11:05 44° SSE 05:22:53 10° ESE visible
20 Jul 8.2 04:07:56 22° SSW 04:11:34 35° SSE 04:20:54 10° E visible
21 Jul 8.2 03:11:49 25° SSE 03:12:25 25° SSE 03:19:09 10° E visible
21 Jul 8.4 05:18:18 10° WSW 05:25:05 45° S 05:36:45 10° ESE visible
22 Jul 9.0 02:15:42 13° ESE 02:15:42 13° ESE 02:17:21 10° ESE visible
22 Jul 8.1 04:21:31 20° SW 04:25:30 39° SSE 04:34:57 10° ESE visible
23 Jul 7.8 03:25:26 29° S 03:26:14 30° SSE 03:33:27 10° ESE visible
24 Jul 8.6 02:29:22 18° SE 02:29:22 18° SE 02:32:09 10° ESE visible
24 Jul 8.0 04:35:11 17° SW 04:39:33 39° S 04:48:50 10° ESE visible
25 Jul 7.6 03:39:09 31° S 03:40:13 33° SSE 03:47:32 10° ESE visible
